User: anonymous
Location: Bridgewater Hill Observatory
(43.5992°N, 72.6989°W)
Time: 22:15:23
(UTC-04:00)
Language:

Cosmos 1452 Rocket - Orbit

View from above orbital plane
View from above orbital plane
View from above satellite
View from above satellite

Ground track
Ground track

The orbit data is extracted from the following two-line orbital elements,

1 13992U 83031B   14106.20434453  .00000136  00000-0  55953-4 0  3867
2 13992 074.0537 330.5427 0005780 244.2693 254.7710 14.35714619622597
Epoch (UTC): 16 April 2014 04:54:15
Eccentricity: 0.0005780
inclination: 74.0537°
perigee height: 768 km
apogee height: 777 km
right ascension of ascending node: 330.5427°
argument of perigee: 244.2693°
revolutions per day: 14.35714619
mean anomaly at epoch: 254.7710°
orbit number at epoch: 62259

The dashed part of the orbit path shows where the satellite is in the earth's shadow,  

DLR